Wind_Speed
5 5 5 6 6 7 9 10 11 13 13 13 14 13 13 11 11 14 16 17 17 17 14 5 3 7 4 6 6 19 13 6 7 5 6 7 5 5 8 8 11 14 11 14 12 19 19
4 5 4 5 6 7 8 9 11 12 13 13 13 13 12 9 9 11 13 17 15 17 12 6 6 4 3 6 13 15 7 7 7 5 6 3 4 8 9 9 4 10 15 12 10 14 7
3 4 4 4 5 6 7 8 9 11 12 12 12 11 10 9 7 8 13 14 20 7 6 10 1 8 19 7 12 11 8 11 9 6 7 6 5 2 7 12 6 9 10 10 9 5 5
3 3 3 3 4 6 6 7 9 11 12 12 11 10 8 7 6 9 12 7 3 3 4 5 7 6 6 6 13 12 10 14 15 16 13 8 13 10 5 8 4 4 4 5 5 3 4
2 2 3 2 2 4 5 6 8 10 12 11 10 8 5 5 6 7 4 5 6 8 8 5 4 4 5 6 11 13 10 6 8 13 15 11 8 5 3 8 5 1 3 3 5 4 2
2 2 2 1 1 3 4 6 7 9 11 11 10 8 4 4 7 9 7 9 6 1 3 5 7 5 5 6 7 11 7 6 8 4 5 9 5 6 4 3 3 5 3 2 2 3 4
2 2 2 1 1 1 3 4 6 8 10 10 10 8 4 4 8 11 12 2 3 3 15 7 4 5 3 5 10 13 8 5 5 8 4 7 7 9 9 9 6 6 3 1 1 1 6
4 3 2 2 2 1 2 3 5 7 9 9 9 9 3 6 10 11 4 2 1 5 10 6 6 6 6 1 2 20 13 4 4 6 3 4 8 7 6 5 5 4 3 3 3 5 5
6 4 3 3 3 3 1 3 4 6 8 8 6 6 4 3 4 6 3 4 9 5 3 3 4 4 3 5 6 10 9 3 7 5 4 2 11 4 4 4 5 4 3 2 3 4 3
9 6 5 4 4 4 3 2 3 5 7 8 5 5 3 1 2 5 2 11 7 1 3 3 2 4 3 2 5 5 7 3 4 10 10 8 5 4 4 3 3 4 3 3 5 4 3
12 9 7 6 6 5 5 3 3 4 6 7 4 6 6 2 7 2 5 13 3 2 4 4 3 2 5 4 3 6 6 4 6 7 3 5 9 7 3 0 2 2 3 6 5 5 3
15 12 10 8 8 7 6 4 2 3 5 5 1 2 2 2 4 6 15 8 1 3 5 4 2 2 3 3 2 2 3 7 3 7 9 7 3 2 2 2 2 4 1 3 2 2 3
19 16 13 11 10 9 8 6 4 1 4 4 1 4 5 2 3 12 13 2 2 5 2 4 2 2 3 2 2 1 2 5 4 6 6 5 4 4 2 5 3 2 3 3 3 4 2
23 20 17 14 12 11 10 8 5 2 2 3 4 4 7 6 10 14 5 2 4 2 4 3 4 6 3 4 1 2 5 5 2 2 5 8 5 8 4 2 2 1 2 3 5 3 3
27 24 20 16 13 13 12 9 7 2 1 1 7 5 3 2 10 10 2 3 4 1 6 10 5 5 5 3 2 4 5 4 5 6 5 6 4 3 3 2 2 5 3 1 0 0 3
29 27 25 20 18 16 13 11 8 4 2 4 5 5 2 4 10 1 2 4 2 2 6 5 8 8 8 8 7 7 9 5 7 4 2 6 4 6 5 1 6 4 8 3 2 3 6
32 29 28 26 23 19 15 12 10 6 3 8 2 2 2 11 6 2 4 4 4 4 3 6 5 6 5 7 9 6 5 4 6 6 3 5 2 6 5 8 9 5 4 1 1 2 4
27 33 30 30 28 23 19 16 12 8 8 8 4 1 4 8 2 2 3 2 4 5 2 3 3 4 9 9 8 7 9 1 10 11 7 3 1 5 2 2 2 2 4 7 4 6 2
22 31 32 34 31 26 23 22 17 15 15 7 3 2 1 0 4 5 1 3 3 5 5 6 7 4 2 8 5 7 5 1 9 9 8 8 4 3 3 2 3 6 6 3 4 1 9
14 26 33 38 31 30 29 24 22 18 17 8 3 2 1 1 1 2 4 5 5 2 3 3 4 4 4 4 2 6 6 4 6 5 5 6 3 5 6 3 4 6 12 14 9 5 7
9 21 35 38 33 30 26 25 24 22 19 9 1 3 1 4 6 8 3 2 5 6 3 6 3 9 7 5 4 6 6 6 4 5 4 4 6 4 3 1 3 5 8 18 19 16 12
7 19 32 34 32 30 30 29 26 24 21 6 5 4 1 0 1 7 6 6 10 4 8 6 7 8 9 6 7 10 10 8 6 6 6 1 3 2 3 2 6 9 14 16 20 19 18
6 6 25 30 33 32 32 29 27 27 24 5 3 3 2 5 5 5 5 7 9 9 7 1 6 6 9 6 4 5 6 6 6 10 8 7 7 5 3 1 2 7 20 23 14 14 18
5 12 13 28 34 33 32 29 29 28 29 8 6 7 3 4 9 8 5 8 7 7 3 2 4 4 6 19 16 11 12 12 10 7 3 6 6 2 1 2 7 3 1 2 19 11 20
12 10 13 27 34 36 31 30 27 27 26 14 14 5 2 3 7 7 8 5 7 6 3 3 2 1 20 3 3 3 2 1 3 5 4 3 4 3 3 5 9 7 6 7 10 10 22
12 13 14 12 38 40 34 31 27 27 25 21 18 12 2 4 7 2 6 6 5 4 3 2 5 19 2 3 3 7 7 4 5 3 2 3 2 3 3 5 7 4 1 3 2 8 6
16 13 14 16 35 42 38 32 30 27 24 25 12 18 5 3 1 2 4 5 6 4 3 5 7 4 0 3 5 5 5 1 7 9 7 4 3 11 9 6 8 0 6 3 5 5 10
20 17 18 18 28 43 38 35 32 27 27 25 11 18 7 2 2 3 1 4 4 4 5 7 5 4 4 6 5 4 5 6 4 4 7 10 10 6 5 7 10 5 6 5 3 4 6
22 19 16 17 31 45 40 34 30 26 26 24 6 16 14 6 3 2 4 3 3 1 4 11 1 4 6 4 4 2 3 3 4 3 2 4 5 4 10 4 2 3 3 2 2 5 5
Wind_Direction
60 63 70 67 55 44 39 38 35 32 28 26 24 28 37 51 69 77 81 88 106 107 126 112 342 332 355 56 18 331 350 45 97 85 96 116 122 108 114 124 97 110 99 77 94 86 82
50 53 62 68 63 49 41 35 34 31 28 26 25 26 35 51 78 94 98 104 102 105 89 33 44 43 44 70 334 341 14 67 95 77 75 67 114 108 90 101 68 108 107 105 72 77 86
37 48 61 48 51 58 43 33 31 29 27 26 26 31 37 52 84 106 117 116 120 96 58 58 110 68 66 53 3 30 68 71 84 100 86 36 112 100 124 105 121 132 114 115 59 91 108
23 29 41 76 51 41 38 32 25 23 23 24 26 32 47 54 108 115 120 116 95 85 30 21 36 79 79 10 14 55 60 71 87 90 83 58 78 82 43 124 77 126 160 195 63 32 117
351 13 19 45 64 51 33 26 23 19 17 24 25 32 55 80 116 150 143 110 94 98 65 43 47 82 81 13 12 11 47 68 71 69 56 55 60 56 85 138 138 142 187 186 141 68 20
316 339 350 356 35 45 29 25 24 17 11 16 21 27 63 96 135 146 139 101 87 253 26 58 61 117 46 4 347 344 19 40 42 23 37 34 51 97 66 226 205 162 175 170 250 15 352
260 302 316 321 300 30 20 20 21 16 13 11 13 16 48 109 155 154 150 284 248 51 39 53 58 76 39 345 53 17 1 347 28 52 53 27 90 85 68 57 76 92 95 217 205 16 323
262 263 292 298 263 273 351 4 16 16 13 12 10 9 43 92 169 177 205 25 59 131 100 59 62 82 66 21 51 12 17 55 27 88 88 87 98 92 81 75 97 109 134 223 265 197 283
256 260 275 283 274 241 278 335 2 10 11 14 14 21 84 127 112 200 177 143 135 114 72 63 45 39 2 39 54 4 14 61 66 64 59 82 131 126 103 112 154 172 213 210 278 306 233
252 253 261 264 260 240 237 292 341 3 7 8 17 33 108 138 98 124 115 157 142 266 254 130 63 36 7 115 70 20 14 46 86 105 90 90 142 160 126 115 259 201 186 279 269 271 293
244 248 250 254 250 240 235 255 317 352 7 7 34 65 64 82 136 130 159 152 148 266 285 97 80 49 46 73 113 38 18 54 117 132 210 120 156 164 188 197 209 77 284 277 258 242 285
242 240 243 246 243 234 234 241 263 339 1 13 44 70 32 53 76 134 148 149 304 234 252 146 125 157 130 33 69 358 67 57 84 83 86 126 110 175 136 184 243 332 228 137 142 190 241
239 237 237 241 234 231 229 227 242 301 354 19 178 122 84 73 116 146 149 184 200 228 90 157 174 164 118 116 92 51 113 141 180 138 172 158 166 142 172 177 212 273 203 230 218 213 321
235 236 237 232 229 231 222 221 226 234 10 9 166 140 73 106 137 148 143 206 228 94 186 119 127 129 215 162 144 141 152 173 164 188 157 182 211 189 141 235 199 177 253 288 284 275 342
235 232 229 230 229 225 220 213 215 222 6 49 157 117 77 91 154 153 181 207 276 141 135 151 136 193 190 200 235 193 219 217 166 188 212 167 176 109 69 146 237 150 203 31 89 69 274
234 231 226 226 224 222 216 211 210 211 262 167 165 127 51 156 157 200 187 244 210 131 127 166 212 203 198 186 192 204 190 168 167 187 226 172 136 194 157 204 60 252 136 163 184 251 260
242 232 231 224 216 206 210 208 201 208 180 155 163 105 10 141 129 226 233 226 168 161 169 191 207 179 215 187 203 204 190 164 174 144 164 161 246 146 162 205 187 156 183 101 10 266 256
241 243 235 226 213 207 202 201 188 185 166 171 147 213 163 158 163 223 237 233 147 160 140 155 184 186 196 179 194 222 214 240 170 158 162 160 122 183 184 93 338 294 214 193 220 188 214
250 236 242 227 218 201 196 196 195 188 182 156 123 102 54 75 200 216 190 249 251 156 194 180 199 206 139 186 218 206 187 108 163 169 158 174 187 165 197 203 205 226 189 153 95 48 204
253 226 233 223 210 202 198 195 188 188 179 140 105 164 161 220 285 251 181 216 216 203 187 171 144 117 143 182 211 179 160 164 188 184 145 160 181 239 266 49 119 199 196 192 190 201 190
282 240 226 217 207 197 195 192 190 187 174 161 116 208 198 206 224 213 206 163 192 203 196 187 185 210 170 172 174 202 162 150 179 207 111 199 225 217 250 203 230 235 207 195 208 216 214
335 243 226 210 202 197 192 193 191 180 175 150 146 161 255 250 141 165 177 202 215 170 170 211 226 209 181 180 206 192 162 187 184 168 157 176 200 162 254 226 235 256 242 220 221 231 246
279 290 232 222 209 198 195 196 191 179 179 166 143 122 152 159 161 178 214 199 210 164 205 7 230 161 207 223 99 65 87 70 121 165 161 167 156 161 233 34 267 256 238 211 209 218 221
279 253 257 231 213 202 196 196 195 185 188 153 163 123 150 204 192 204 213 198 187 199 166 142 154 180 122 117 111 85 70 71 63 45 64 149 145 176 257 210 246 316 42 250 219 232 217
319 291 254 230 219 207 197 193 197 186 196 184 163 157 158 204 202 193 177 144 106 81 102 129 77 37 157 149 110 124 106 137 78 44 28 354 143 159 230 224 319 275 196 181 183 258 216
321 308 263 265 219 205 199 195 192 189 193 195 179 164 133 127 221 55 157 177 167 142 125 111 25 141 196 178 168 201 210 176 185 162 64 79 46 247 158 247 262 34 150 195 217 268 21
310 294 272 252 216 209 197 190 187 185 189 190 181 181 129 167 148 170 166 171 139 130 118 125 146 203 312 177 205 210 215 67 188 181 169 165 189 219 217 257 283 117 140 142 188 317 340
313 303 287 258 218 204 194 189 184 185 189 187 170 177 163 137 84 352 27 145 137 162 161 132 126 208 174 202 212 201 211 198 188 139 179 176 165 192 190 223 264 137 118 213 10 352 352
311 308 286 254 208 202 190 176 173 176 185 184 137 176 162 81 84 47 77 110 102 102 130 181 3 154 169 186 207 130 173 165 177 225 218 216 220 189 203 214 39 217 26 49 265 316 342
Height
836 836 836 836 836 835 834 832 830 828 827 825 823 821 818 816 815 813 811 811 813 813 816 818 818 817 816 819 827 823 818 815 814 813 813 812 812 814 817 820 821 829 841 852 860 864 870
836 836 836 835 835 835 834 833 831 829 828 826 824 822 821 819 818 815 815 813 816 817 818 818 817 817 818 824 830 824 820 818 816 816 815 815 814 815 820 824 825 833 843 853 859 863 870
836 835 835 836 835 834 834 833 832 830 828 826 825 823 822 822 821 819 817 817 815 818 819 819 817 818 822 835 832 826 822 820 819 819 818 819 819 817 821 831 835 838 844 849 859 862 872
836 835 835 834 835 835 834 833 832 831 828 827 826 824 822 823 823 823 822 821 820 818 819 819 818 818 829 834 833 829 827 825 823 821 822 823 823 825 829 836 839 838 839 837 862 860 869
836 835 835 835 834 834 834 834 833 831 829 827 825 824 823 821 822 823 824 823 822 820 818 818 820 819 831 834 834 833 830 830 828 827 826 827 827 837 836 830 833 840 827 841 854 866 863
834 834 834 834 834 834 834 833 833 832 830 828 825 824 823 822 822 823 824 823 821 821 820 819 821 823 835 840 838 836 834 832 831 829 829 832 836 833 838 831 815 832 838 852 850 862 862
832 833 833 833 833 833 834 833 832 831 830 828 826 825 824 823 823 824 825 824 825 824 827 835 837 837 840 842 840 839 837 836 834 835 834 846 834 844 856 857 862 860 858 857 862 870 870
831 831 832 833 833 832 833 833 831 830 830 828 827 825 824 824 824 825 826 827 827 829 835 839 839 841 842 842 840 841 839 839 837 841 845 843 855 868 867 866 864 865 869 866 867 872 874
829 830 830 831 832 832 832 832 831 830 829 827 826 825 824 824 824 826 826 829 829 829 829 842 842 842 844 844 850 849 847 850 848 851 850 841 864 874 870 870 870 871 868 870 873 873 874
828 827 829 829 830 830 830 831 831 830 828 827 826 825 824 824 826 826 828 828 831 832 822 841 842 846 847 847 852 856 855 853 855 859 858 865 875 874 873 875 877 869 875 879 880 878 851
825 825 826 827 828 829 829 829 830 829 827 826 826 825 825 823 824 826 827 828 831 834 813 847 846 849 850 847 854 855 857 853 855 861 863 875 875 877 876 877 881 873 881 880 877 872 875
821 822 823 824 826 827 828 829 827 828 827 826 826 825 825 825 825 826 827 830 833 825 814 844 847 847 848 854 856 857 856 858 864 863 865 873 879 878 877 881 881 882 879 879 877 875 869
818 819 819 821 822 824 826 827 827 825 826 825 826 825 823 824 826 827 829 832 823 814 838 841 845 848 849 855 859 858 859 857 852 864 862 874 876 881 882 879 880 879 877 843 846 853 830
812 815 817 817 819 821 823 825 825 825 824 825 824 826 825 825 826 828 830 828 821 813 824 846 846 850 845 854 862 862 859 853 870 863 858 856 862 876 880 877 871 875 876 842 833 824 830
805 808 812 814 815 818 820 822 824 824 823 823 824 826 827 829 829 828 826 821 804 815 830 840 849 843 847 858 857 861 857 850 858 865 846 857 867 882 883 884 882 876 869 892 886 892 879
797 802 805 807 810 814 817 819 822 822 822 824 824 825 827 828 830 832 824 815 819 834 839 838 819 828 828 849 856 858 854 855 861 870 873 867 872 881 886 888 889 881 889 883 880 876 858
792 794 798 801 804 807 812 815 818 820 820 822 825 826 830 829 831 832 820 815 827 834 836 835 828 834 833 846 847 847 840 862 861 871 872 871 865 884 887 882 870 889 886 898 887 888 858
788 789 791 794 798 800 807 812 814 817 820 821 822 825 829 831 831 831 823 825 831 834 837 838 839 838 837 846 846 844 840 851 860 864 866 874 870 864 872 899 901 895 881 879 858 884 899
780 783 786 788 791 795 801 805 810 812 815 818 821 829 832 830 830 821 833 831 833 834 833 835 836 838 850 847 845 843 851 865 862 862 864 871 869 862 875 896 897 891 894 904 914 902 889
773 776 780 782 785 790 794 800 804 808 811 814 822 830 833 832 829 820 827 824 827 833 832 834 838 844 851 854 860 859 860 867 868 865 867 869 878 854 813 848 867 884 885 892 880 880 863
769 772 775 778 781 785 791 798 800 805 807 812 818 821 819 823 819 819 822 821 824 828 834 836 843 836 845 857 858 854 861 869 870 867 879 873 869 875 877 889 886 875 874 885 881 858 854
769 770 772 775 779 782 787 791 796 799 806 809 814 819 826 822 820 821 820 822 819 827 831 831 835 830 846 844 836 845 855 860 856 875 877 893 868 890 879 897 895 888 878 874 875 863 872
770 771 772 773 778 779 783 787 791 794 802 806 808 810 811 815 818 822 818 811 816 819 830 831 831 839 843 839 849 859 862 862 858 863 876 884 888 886 854 904 904 882 858 855 851 855 853
766 769 770 770 774 776 779 783 788 791 794 797 801 805 813 807 808 810 811 813 813 819 821 836 837 835 854 853 856 861 868 875 879 886 879 885 879 886 867 904 850 818 861 852 841 838 851
764 764 765 765 769 771 776 780 783 788 793 794 797 801 802 802 801 806 811 819 828 830 836 838 842 845 849 850 851 854 857 864 880 890 891 890 878 890 865 860 827 805 859 854 850 820 831
759 759 762 759 761 764 771 775 779 784 790 792 796 798 801 803 801 801 809 816 820 828 840 844 848 849 850 843 843 835 823 827 863 879 891 890 888 866 899 857 816 812 848 858 854 819 829
755 754 756 756 756 757 764 768 774 780 787 789 791 795 799 802 807 807 805 811 817 826 833 845 850 851 850 842 835 829 818 849 837 847 877 881 883 867 863 853 832 834 851 865 827 811 846
749 748 747 746 749 751 758 763 768 776 780 784 788 792 795 799 810 813 812 812 818 819 824 840 844 845 846 840 828 817 821 840 836 841 855 851 859 866 863 864 842 852 861 837 851 851 854
743 739 739 738 742 746 753 758 765 774 775 779 788 790 794 801 814 816 815 815 814 816 821 828 823 824 822 823 824 827 830 851 828 813 857 840 829 833 837 827 854 856 856 863 863 857 852